�������l�o���
Date,Time,MP-1(��Sv/h),MP-2(��Sv/h),MP-3(��Sv/h),MP-4(��Sv/h),MP-5(��Sv/h),MP-6(��Sv/h),MP-7(��Sv/h),MP-8(��Sv/h),����,����(m/s),���J
2018/03/07,00:00,0.835,1.411,0.877,1.644,1.123,0.471,0.843,0.812,�k��,5.2,��
2018/03/07,00:10,0.834,1.412,0.875,1.642,1.121,0.469,0.842,0.811,�k��,5.7,��
2018/03/07,00:20,0.836,1.411,0.878,1.641,1.123,0.469,0.840,0.812,�k��,5.2,��
2018/03/07,00:30,0.835,1.410,0.876,1.641,1.122,0.469,0.842,0.811,�k��,5.2,��
2018/03/07,00:40,0.834,1.414,0.876,1.641,1.122,0.470,0.842,0.810,�k�k��,4.4,��
2018/03/07,00:50,0.835,1.411,0.875,1.641,1.123,0.470,0.841,0.811,�k�k��,4.3,��
2018/03/07,01:00,0.836,1.411,0.876,1.640,1.121,0.471,0.842,0.811,�k�k��,4.0,��
2018/03/07,01:10,0.836,1.412,0.876,1.639,1.122,0.470,0.841,0.810,�k��,5.0,��
2018/03/07,01:20,0.834,1.412,0.874,1.641,1.123,0.467,0.841,0.811,�k�k��,3.7,��
2018/03/07,01:30,0.832,1.410,0.874,1.641,1.118,0.468,0.843,0.810,�k�k��,5.1,��
2018/03/07,01:40,0.833,1.410,0.876,1.642,1.122,0.469,0.840,0.809,�k�k��,6.9,��
2018/03/07,01:50,0.835,1.410,0.876,1.641,1.123,0.469,0.841,0.811,�k�k��,6.4,��
2018/03/07,02:00,0.834,1.410,0.876,1.641,1.120,0.468,0.840,0.811,�k�k��,7.1,��
2018/03/07,02:10,0.834,1.409,0.874,1.640,1.121,0.469,0.842,0.809,�k�k��,6.5,��
2018/03/07,02:20,0.833,1.410,0.875,1.642,1.121,0.469,0.841,0.811,�k�k��,6.7,��
2018/03/07,02:30,0.833,1.409,0.875,1.641,1.121,0.468,0.842,0.809,�k��,6.6,��
2018/03/07,02:40,0.832,1.412,0.873,1.641,1.119,0.467,0.840,0.811,�k��,6.4,��
2018/03/07,02:50,0.834,1.410,0.873,1.642,1.120,0.467,0.841,0.812,�k�k��,6.9,��
2018/03/07,03:00,0.833,1.409,0.875,1.641,1.119,0.468,0.842,0.812,�k��,6.9,��
2018/03/07,03:10,0.834,1.409,0.873,1.639,1.121,0.467,0.842,0.809,�k��,6.3,��
2018/03/07,03:20,0.832,1.410,0.872,1.639,1.121,0.467,0.841,0.812,�k��,7.2,��
2018/03/07,03:30,0.833,1.407,0.876,1.639,1.121,0.468,0.840,0.811,�k��,7.8,��
2018/03/07,03:40,0.833,1.410,0.875,1.640,1.121,0.470,0.840,0.811,�k��,7.0,��
2018/03/07,03:50,0.830,1.412,0.874,1.639,1.119,0.468,0.841,0.810,�k��,6.5,��
2018/03/07,04:00,0.833,1.412,0.874,1.640,1.118,0.468,0.842,0.811,�k��,6.7,��
2018/03/07,04:10,0.831,1.411,0.873,1.641,1.120,0.467,0.840,0.811,�k��,6.5,��
2018/03/07,04:20,0.832,1.409,0.873,1.641,1.119,0.467,0.841,0.810,�k��,7.1,��
2018/03/07,04:30,0.833,1.407,0.874,1.640,1.119,0.467,0.841,0.811,�k�k��,6.4,��
2018/03/07,04:40,0.829,1.407,0.874,1.640,1.119,0.467,0.842,0.812,�k�k��,6.1,��
2018/03/07,04:50,0.831,1.408,0.871,1.640,1.118,0.467,0.841,0.809,�k�k��,6.8,��
2018/03/07,05:00,0.831,1.406,0.874,1.641,1.118,0.467,0.841,0.810,�k�k��,7.7,��
2018/03/07,05:10,0.832,1.408,0.871,1.642,1.120,0.468,0.840,0.811,�k�k��,8.3,��
2018/03/07,05:20,0.832,1.409,0.872,1.640,1.120,0.468,0.841,0.811,�k�k��,8.1,��
2018/03/07,05:30,0.831,1.407,0.872,1.639,1.119,0.468,0.842,0.812,�k�k��,7.8,��
2018/03/07,05:40,0.831,1.408,0.873,1.640,1.116,0.467,0.839,0.808,�k�k��,7.2,��
2018/03/07,05:50,0.831,1.409,0.872,1.638,1.118,0.465,0.840,0.811,�k�k��,6.9,��
2018/03/07,06:00,0.829,1.406,0.870,1.638,1.117,0.466,0.841,0.810,�k�k��,6.4,��
2018/03/07,06:10,0.829,1.408,0.871,1.639,1.117,0.466,0.841,0.810,�k�k��,7.3,��
2018/03/07,06:20,0.830,1.404,0.872,1.640,1.117,0.467,0.840,0.810,�k�k��,7.4,��
2018/03/07,06:30,0.830,1.408,0.872,1.639,1.118,0.467,0.842,0.811,�k�k��,6.2,��
2018/03/07,06:40,0.831,1.408,0.872,1.639,1.114,0.467,0.840,0.812,�k�k��,7.2,��
2018/03/07,06:50,0.831,1.405,0.869,1.639,1.118,0.468,0.842,0.810,�k�k��,8.5,��
2018/03/07,07:00,0.827,1.406,0.873,1.641,1.116,0.467,0.841,0.811,�k�k��,8.0,��
2018/03/07,07:10,0.829,1.407,0.872,1.639,1.118,0.466,0.841,0.811,�k�k��,8.7,��
2018/03/07,07:20,0.832,1.407,0.872,1.639,1.119,0.465,0.842,0.810,�k�k��,9.3,��
2018/03/07,07:30,0.833,1.406,0.871,1.640,1.119,0.466,0.840,0.813,�k�k��,8.5,��
2018/03/07,07:40,0.833,1.407,0.871,1.641,1.116,0.465,0.842,0.811,�k�k��,7.3,�L
2018/03/07,07:50,0.832,1.411,0.873,1.639,1.120,0.466,0.842,0.812,�k�k��,6.8,�L
2018/03/07,08:00,0.833,1.407,0.874,1.639,1.123,0.468,0.841,0.812,�k�k��,5.5,��
2018/03/07,08:10,0.834,1.409,0.871,1.641,1.120,0.466,0.842,0.811,�k�k��,4.2,��
2018/03/07,08:20,0.835,1.411,0.873,1.641,1.118,0.467,0.843,0.810,�k�k��,6.2,��
2018/03/07,08:30,0.835,1.410,0.874,1.641,1.121,0.466,0.841,0.813,�k�k��,5.5,��
2018/03/07,08:40,0.836,1.409,0.874,1.640,1.121,0.467,0.842,0.811,�k,5.2,��
2018/03/07,08:50,0.835,1.414,0.874,1.645,1.123,0.469,0.844,0.812,�k,4.6,��
2018/03/07,09:00,0.834,1.411,0.874,1.641,1.122,0.469,0.843,0.811,�k�k��,4.7,��
2018/03/07,09:10,0.837,1.410,0.876,1.641,1.123,0.466,0.841,0.812,�k�k��,5.8,��
2018/03/07,09:20,0.838,1.414,0.875,1.636,1.124,0.467,0.840,0.812,�k�k��,5.9,��
2018/03/07,09:30,0.838,1.414,0.872,1.640,1.124,0.469,0.840,0.812,�k�k��,6.2,��
2018/03/07,09:40,0.837,1.414,0.869,1.644,1.125,0.467,0.842,0.813,�k�k��,6.2,��
2018/03/07,09:50,0.839,1.413,0.867,1.643,1.125,0.468,0.840,0.812,�k�k��,5.7,��
2018/03/07,10:00,0.838,1.414,0.868,1.642,1.124,0.467,0.842,0.812,�k�k��,5.6,��
2018/03/07,10:10,0.838,1.413,0.867,1.642,1.124,0.469,0.839,0.811,�k�k��,5.2,��
2018/03/07,10:20,0.837,1.414,0.867,1.642,1.126,0.467,0.841,0.812,�k�k��,5.9,��
2018/03/07,10:30,0.837,1.413,0.869,1.644,1.128,0.469,0.841,0.812,�k��,5.7,��
2018/03/07,10:40,0.837,1.413,0.868,1.642,1.127,0.468,0.840,0.812,�k��,5.3,��
2018/03/07,10:50,0.838,1.412,0.864,1.647,1.126,0.469,0.841,0.812,�k��,4.7,��
2018/03/07,11:00,0.838,1.413,0.868,1.644,1.127,0.469,0.842,0.813,�k��,5.1,��
2018/03/07,11:10,0.838,1.416,0.862,1.643,1.126,0.469,0.841,0.811,�k��,4.5,��
2018/03/07,11:20,0.839,1.417,0.871,1.646,1.129,0.469,0.840,0.813,�k��,4.4,��
2018/03/07,11:30,0.839,1.415,0.870,1.645,1.128,0.469,0.841,0.813,�k��,5.0,��
2018/03/07,11:40,0.842,1.419,0.871,1.644,1.130,0.471,0.841,0.813,�k��,5.0,��
2018/03/07,11:50,0.842,1.418,0.872,1.646,1.130,0.469,0.840,0.814,���k��,5.0,��
2018/03/07,12:00,0.841,1.418,0.879,1.648,1.131,0.470,0.843,0.813,�k��,4.4,��
2018/03/07,12:10,0.841,1.421,0.880,1.647,1.130,0.471,0.840,0.812,�k��,4.6,��
2018/03/07,12:20,0.844,1.421,0.878,1.648,1.129,0.469,0.841,0.814,���k��,5.2,��
2018/03/07,12:30,0.841,1.423,0.880,1.647,1.134,0.469,0.841,0.813,�k��,4.1,��
2018/03/07,12:40,0.843,1.422,0.877,1.648,1.128,0.470,0.841,0.815,�k�k��,4.3,��
2018/03/07,12:50,0.842,1.420,0.879,1.649,1.127,0.470,0.839,0.813,�k�k��,4.8,��
2018/03/07,13:00,0.843,1.422,0.879,1.638,1.131,0.470,0.842,0.815,���k��,4.8,��
2018/03/07,13:10,0.843,1.422,0.880,1.637,1.131,0.470,0.843,0.815,���k��,5.0,��
2018/03/07,13:20,0.843,1.420,0.878,1.637,1.131,0.471,0.841,0.814,�k��,4.0,��
2018/03/07,13:30,0.843,1.420,0.880,1.636,1.131,0.470,0.843,0.814,�k��,3.9,��
2018/03/07,13:40,0.844,1.420,0.881,1.648,1.131,0.471,0.843,0.813,�k��,3.9,��
2018/03/07,13:50,0.844,1.423,0.881,1.648,1.131,0.471,0.843,0.812,���k��,3.6,��
2018/03/07,14:00,0.844,1.421,0.881,1.646,1.133,0.470,0.842,0.812,�k��,4.1,��
2018/03/07,14:10,0.844,1.425,0.881,1.638,1.133,0.470,0.842,0.813,���k��,4.4,��
2018/03/07,14:20,0.843,1.425,0.883,1.642,1.134,0.471,0.841,0.813,���k��,4.4,��
2018/03/07,14:30,0.845,1.424,0.881,1.632,1.135,0.470,0.843,0.814,�k��,3.7,��
2018/03/07,14:40,0.843,1.423,0.882,1.643,1.136,0.471,0.842,0.814,���k��,3.4,��
2018/03/07,14:50,0.845,1.423,0.874,1.653,1.135,0.471,0.842,0.811,��,3.9,��
2018/03/07,15:00,0.844,1.425,0.886,1.652,1.132,0.470,0.842,0.813,���k��,3.0,��
2018/03/07,15:10,0.847,1.425,0.884,1.652,1.137,0.472,0.843,0.813,��,2.6,��
2018/03/07,15:20,0.844,1.423,0.880,1.651,1.133,0.470,0.842,0.812,���k��,3.4,��
2018/03/07,15:30,0.845,1.423,0.882,1.651,1.134,0.470,0.842,0.813,���k��,2.6,��
2018/03/07,15:40,0.846,1.426,0.881,1.653,1.135,0.470,0.843,0.814,���k��,3.1,��
2018/03/07,15:50,0.845,1.426,0.883,1.650,1.133,0.471,0.842,0.814,���k��,2.2,��
2018/03/07,16:00,0.845,1.427,0.882,1.652,1.132,0.470,0.843,0.813,���k��,2.3,��
2018/03/07,16:10,0.846,1.424,0.883,1.651,1.136,0.473,0.843,0.813,���k��,2.0,��
2018/03/07,16:20,0.845,1.427,0.882,1.650,1.136,0.472,0.844,0.815,�k��,2.6,��
2018/03/07,16:30,0.845,1.426,0.883,1.652,1.136,0.473,0.846,0.814,��,2.0,��
2018/03/07,16:40,0.845,1.426,0.881,1.649,1.136,0.471,0.845,0.814,���k��,1.7,��
2018/03/07,16:50,0.844,1.426,0.881,1.654,1.135,0.471,0.847,0.813,�k�k��,2.0,��
2018/03/07,17:00,0.844,1.428,0.882,1.652,1.136,0.473,0.845,0.812,�k,2.5,��
2018/03/07,17:10,0.843,1.425,0.883,1.653,1.137,0.473,0.845,0.814,�k��,1.2,��
2018/03/07,17:20,0.844,1.425,0.882,1.648,1.136,0.470,0.843,0.813,��,0.9,��
2018/03/07,17:30,0.843,1.424,0.881,1.652,1.135,0.471,0.844,0.813,�k�k��,0.9,��
2018/03/07,17:40,0.844,1.427,0.882,1.652,1.136,0.473,0.844,0.813,���k��,1.2,��
2018/03/07,17:50,0.845,1.425,0.882,1.650,1.134,0.471,0.846,0.812,�k,0.9,��
2018/03/07,18:00,0.845,1.423,0.882,1.651,1.135,0.471,0.843,0.811,���k��,0.8,��
2018/03/07,18:10,0.844,1.425,0.881,1.649,1.133,0.471,0.843,0.813,-,CALM,��
2018/03/07,18:20,0.843,1.426,0.882,1.650,1.133,0.472,0.844,0.813,���k��,0.9,��
2018/03/07,18:30,0.843,1.424,0.880,1.649,1.135,0.471,0.843,0.813,�k��,0.8,��
2018/03/07,18:40,0.846,1.425,0.881,1.651,1.134,0.471,0.843,0.810,���k��,0.9,��
2018/03/07,18:50,0.844,1.425,0.880,1.652,1.135,0.471,0.842,0.813,���k��,0.8,��
2018/03/07,19:00,0.847,1.424,0.882,1.652,1.137,0.472,0.843,0.813,���k��,1.5,��
2018/03/07,19:10,0.845,1.426,0.883,1.649,1.135,0.471,0.846,0.812,���k��,1.7,��
2018/03/07,19:20,0.847,1.426,0.881,1.652,1.135,0.471,0.842,0.813,���k��,1.5,��
2018/03/07,19:30,0.845,1.426,0.880,1.650,1.134,0.472,0.844,0.814,��,2.0,��
2018/03/07,19:40,0.845,1.425,0.883,1.650,1.137,0.472,0.844,0.814,��,1.9,��
2018/03/07,19:50,0.844,1.423,0.882,1.653,1.135,0.471,0.844,0.811,��,1.7,��
2018/03/07,20:00,0.844,1.425,0.881,1.649,1.135,0.471,0.844,0.814,��,2.3,��
2018/03/07,20:10,0.845,1.423,0.883,1.649,1.135,0.471,0.842,0.814,���쐼,2.0,��
2018/03/07,20:20,0.845,1.424,0.882,1.650,1.133,0.470,0.843,0.814,���쐼,3.0,��
2018/03/07,20:30,0.844,1.425,0.882,1.650,1.136,0.472,0.845,0.814,���쐼,2.5,��
2018/03/07,20:40,0.845,1.426,0.882,1.651,1.135,0.471,0.844,0.813,�쐼,2.6,��
2018/03/07,20:50,0.842,1.425,0.882,1.648,1.134,0.472,0.844,0.813,�쐼,2.8,��
2018/03/07,21:00,0.845,1.423,0.881,1.650,1.134,0.470,0.844,0.813,�쐼,2.0,��
2018/03/07,21:10,0.843,1.424,0.883,1.649,1.134,0.470,0.843,0.814,�쐼,2.2,��
2018/03/07,21:20,0.843,1.423,0.880,1.649,1.132,0.471,0.843,0.814,�쐼,2.3,��
2018/03/07,21:30,0.843,1.424,0.881,1.648,1.135,0.473,0.844,0.814,���쐼,1.5,��
2018/03/07,21:40,0.843,1.422,0.881,1.649,1.136,0.470,0.844,0.813,���쐼,2.5,��
2018/03/07,21:50,0.843,1.423,0.880,1.651,1.135,0.471,0.843,0.813,���쐼,2.6,��
2018/03/07,22:00,0.842,1.425,0.882,1.651,1.134,0.473,0.844,0.813,���쐼,2.8,��
2018/03/07,22:10,0.844,1.423,0.879,1.651,1.134,0.472,0.842,0.813,��,2.3,��
2018/03/07,22:20,0.844,1.423,0.882,1.652,1.136,0.472,0.842,0.812,��,2.6,��
2018/03/07,22:30,0.844,1.426,0.880,1.651,1.135,0.473,0.845,0.813,���쐼,2.2,��
2018/03/07,22:40,0.844,1.424,0.880,1.649,1.135,0.472,0.844,0.814,��,2.3,��
2018/03/07,22:50,0.843,1.424,0.880,1.649,1.136,0.473,0.842,0.813,���쐼,1.7,��
2018/03/07,23:00,0.843,1.426,0.880,1.649,1.134,0.471,0.844,0.811,��,2.3,��
2018/03/07,23:10,0.843,1.425,0.881,1.650,1.135,0.471,0.844,0.815,��,2.0,��
2018/03/07,23:20,0.845,1.423,0.883,1.650,1.136,0.472,0.844,0.813,���쐼,2.0,��
2018/03/07,23:30,0.844,1.426,0.883,1.651,1.136,0.472,0.843,0.813,���쐼,2.0,��
2018/03/07,23:40,0.845,1.423,0.883,1.651,1.136,0.473,0.843,0.814,���쐼,1.2,��
2018/03/07,23:50,0.843,1.422,0.882,1.649,1.134,0.473,0.842,0.814,��,1.7,��
